Terug naar catalogus

USA 40 R/B DEB

ActiefHEO
NORAD 23372·DEBRIS·🇺🇸 United States

Gelanceerd Aug 8, 1989 vanaf Cape Canaveral Space Force Station

Loading…

Volgende Passages (komende 24 uur)

TLE

VersSource: Space-Track

Epoch: Sep 5, 2026, 23:58 UTC

1 23372U 89061AU  26248.99923078  .00001142  00000-0  68796-3 0  9997
2 23372  57.0154 114.5987 2703692 238.0972  92.8544  9.49080189251060

Volg USA 40 R/B DEB in realtime met AllMySat

Download on the App Store